Home   Weather   Kyiv   Past weeks

Flag for Ukraine Past Weather in Kyiv, Ukraine — Yesterday and Last 2 Weeks

Now
30 °F

Sunny.


Feels Like: 21 °F
Forecast: 24 / 27 °F
Wind: 10 mph from West

Location: Kyiv

Current Time: Jan 23, 2017 at 2:58:52 pm

Latest Report: Jan 23, 2017 at 2:30 pm


Visibility: 10 mi

Pressure: 30.27 "Hg

Humidity: 86%

Dew Point: 27 °F

Location of KyivLocation

Past Weather in Kyiv — Graph

°F

Kyiv Temperature Yesterday

Maximum temperature yesterday: 34 °F (at 1:30 pm)
Minimum temperature yesterday: 25 °F (at 11:30 pm)
Average temperature yesterday: 30 °F

High & Low Weather Summary for the Past Weeks

 TemperatureHumidityPressure
High37 °F (Jan 14, 9:01 am)100% (Jan 10, 8:06 pm)30.69 "Hg (Jan 10, 8:06 pm)
Low10 °F (Jan 8, 1:00 pm)64% (Jan 12, 2:00 pm)29.47 "Hg (Jan 14, 12:30 pm)
Average24 °F88%30.17 "Hg
* Reported Jan 8 1:00 pm — Jan 23 1:30 pm, Kyiv, Weather by CustomWeather, © 2017

Note: Actual official high and low records may vary slightly from our data, if they occured in-between our weather recording intervals... More about our weather records

Advertising

Kyiv Weather History for the Previous 24 Hours

Scroll right to see more
 ConditionsComfort  
Time TempWeatherWind HumidityBarometerVisibility
1:30 pm
Mon, Jan 23
30 °FSunny.13 mph86%30.27 "Hg10 mi
1:00 pm30 °FSunny.10 mph86%30.30 "Hg10 mi
12:30 pm28 °FScattered clouds.13 mph93%30.30 "HgN/A
12:00 pm27 °FPartly sunny.10 mph100%30.33 "HgN/A
11:30 am27 °FPartly sunny.10 mph93%30.33 "HgN/A
11:00 am27 °FPartly sunny.10 mph93%30.33 "HgN/A
10:30 am27 °FPartly sunny.13 mph93%30.33 "Hg6 mi
10:00 am27 °FLow clouds.13 mph93%30.33 "Hg6 mi
9:30 am25 °FLow clouds.13 mph100%30.33 "Hg5 mi
9:00 am25 °FIce fog.13 mph100%30.36 "Hg3 mi
8:30 am25 °FIce fog.15 mph100%30.36 "Hg2 mi
8:07 am25 °FIce fog.10 mph100%30.36 "Hg0 mi
8:00 am25 °FIce fog.13 mph100%30.36 "Hg0 mi
7:34 am25 °FIce fog.13 mph100%30.36 "Hg0 mi
7:16 am25 °FIce fog.13 mph100%30.36 "Hg0 mi
7:00 am25 °FIce fog.13 mph100%30.36 "Hg0 mi
6:30 am25 °FIce fog.10 mph100%30.36 "Hg0 mi
6:22 am25 °FIce fog.13 mph100%30.36 "Hg0 mi
6:00 am25 °FIce fog.13 mph100%30.36 "Hg0 mi
5:36 am25 °FIce fog.13 mph100%30.36 "Hg0 mi
5:00 am25 °FIce fog.13 mph100%30.36 "Hg0 mi
4:30 am25 °FIce fog.13 mph100%30.39 "Hg0 mi
4:00 am25 °FIce fog.10 mph100%30.39 "Hg0 mi
3:31 am25 °FIce fog.13 mph100%30.39 "Hg0 mi
3:00 am25 °FIce fog.10 mph93%30.39 "Hg1 mi
2:46 am25 °FIce fog.13 mph93%30.39 "Hg1 mi
2:30 am25 °FIce fog.10 mph93%30.39 "Hg1 mi
2:00 am25 °FPassing clouds.8 mph93%30.39 "HgN/A
1:30 am25 °FClear.8 mph93%30.42 "Hg10 mi
1:00 am25 °FClear.8 mph93%30.42 "Hg10 mi
12:30 am25 °FClear.10 mph93%30.42 "Hg10 mi
12:00 am25 °FClear.10 mph93%30.42 "Hg10 mi
11:30 pm
Sun, Jan 22
25 °FClear.10 mph93%30.42 "Hg10 mi
11:00 pm27 °FClear.10 mph86%30.42 "Hg10 mi
10:30 pm27 °FClear.13 mph86%30.42 "Hg10 mi
10:00 pm27 °FClear.10 mph86%30.42 "Hg10 mi
9:30 pm27 °FClear.10 mph86%30.42 "Hg10 mi
9:00 pm27 °FClear.13 mph86%30.42 "Hg10 mi
8:30 pm28 °FClear.10 mph80%30.42 "Hg10 mi
8:00 pm28 °FClear.10 mph80%30.42 "Hg10 mi
7:30 pm28 °FClear.10 mph80%30.42 "Hg10 mi
7:00 pm28 °FClear.10 mph80%30.45 "Hg10 mi
6:30 pm28 °FClear.10 mph80%30.45 "Hg10 mi
6:00 pm30 °FClear.10 mph75%30.45 "Hg10 mi
5:30 pm30 °FClear.10 mph75%30.45 "Hg10 mi
5:00 pm32 °FClear.10 mph69%30.42 "Hg10 mi
4:30 pm32 °FSunny.13 mph69%30.45 "Hg10 mi
4:00 pm34 °FSunny.13 mph70%30.45 "Hg10 mi
3:30 pm34 °FSunny.13 mph70%30.45 "Hg10 mi
3:00 pm34 °FSunny.13 mph70%30.45 "Hg10 mi
2:30 pm34 °FPassing clouds.13 mph70%30.45 "HgN/A
2:00 pm34 °FPassing clouds.13 mph70%30.45 "HgN/A
Weather by CustomWeather, © 2017

See weather overviewHow to use our weather pages